CW3518 Weather Reports


time (UTC)temp
C
wind
direction
speed
KPH
gust
KPH
rain 1hr
cm
rain 24hr
cm
rain mn
cm
humidity
%
barometer
mb
20260831150002 31 214 19.3 24.1 0.00 0.00 0.00 48 1017.5
20260831145531 30 210 20.9 27.4 0.00 0.00 0.00 49 1017.5
20260831145003 30 199 19.3 27.4 0.00 0.00 0.00 52 1017.5
20260831144501 30 202 12.9 27.4 0.00 0.00 0.00 54 1017.5
20260831144001 30 213 27.4 27.4 0.00 0.00 0.00 55 1017.5
20260831143010 30 207 14.5 24.1 0.00 0.00 0.00 56 1017.5
20260831142501 29 224 24.1 25.7 0.00 0.00 0.00 56 1017.5
20260831142003 30 229 24.1 25.7 0.00 0.00 0.00 56 1017.4
20260831141501 29 206 17.7 24.1 0.00 0.00 0.00 58 1017.4
20260831141001 29 201 19.3 24.1 0.00 0.00 0.00 58 1017.4
20260831140501 29 191 14.5 24.1 0.00 0.00 0.00 59 1017.3
20260831140031 29 202 14.5 20.9 0.00 0.00 0.00 60 1017.4
20260831135531 28 204 14.5 19.3 0.00 0.00 0.00 62 1017.4
20260831135030 28 189 14.5 17.7 0.00 0.00 0.00 63 1017.3
20260831134530 28 202 11.3 17.7 0.00 0.00 0.00 64 1017.3
20260831134030 28 206 16.1 17.7 0.00 0.00 0.00 64 1017.2
20260831133505 27 196 17.7 17.7 0.00 0.00 0.00 65 1017.2
20260831133001 27 210 6.4 11.3 0.00 0.00 0.00 66 1017.2
20260831132505 27 205 9.7 11.3 0.00 0.00 0.00 67 1017.2
20260831132001 27 154 4.8 11.3 0.00 0.00 0.00 68 1017.1
20260831131500 26 215 9.7 11.3 0.00 0.00 0.00 68 1017.1
20260831131000 26 188 6.4 8.0 0.00 0.00 0.00 69 1017.0
20260831130500 26 206 6.4 8.0 0.00 0.00 0.00 69 1016.8
20260831125500 26 175 4.8 8.0 0.00 0.00 0.00 71 1016.6
20260831125000 25 168 6.4 8.0 0.00 0.00 0.00 72 1016.5
20260831124500 25 141 6.4 8.0 0.00 0.00 0.00 72 1016.4
20260831123959 25 141 4.8 8.0 0.00 0.00 0.00 73 1016.3
20260831123500 25 162 8.0 9.7 0.00 0.00 0.00 72 1016.3
20260831122530 25 144 8.0 9.7 0.00 0.00 0.00 72 1016.1
20260831122000 25 139 6.4 9.7 0.00 0.00 0.00 72 1016.1
20260831121030 25 147 8.0 9.7 0.00 0.00 0.00 72 1016.0
20260831120530 25 182 3.2 6.4 0.00 0.00 0.00 71 1015.8
20260831115530 25 187 4.8 6.4 0.00 0.00 0.00 71 1015.6
20260831115029 25 189 4.8 6.4 0.00 0.00 0.00 71 1015.6
20260831114529 25 169 6.4 6.4 0.00 0.00 0.00 70 1015.6
20260831114029 25 185 6.4 6.4 0.00 0.00 0.00 70 1015.5
20260831113029 25 191 6.4 8.0 0.00 0.00 0.00 70 1015.5
20260831112529 25 191 6.4 9.7 0.00 0.00 0.00 69 1015.5
20260831112029 25 199 8.0 9.7 0.00 0.00 0.00 69 1015.4
20260831110959 26 225 9.7 9.7 0.00 0.00 0.00 68 1015.3
20260831110459 26 197 6.4 8.0 0.00 0.00 0.00 68 1015.3
20260831105959 26 177 8.0 9.7 0.00 0.00 0.00 68 1015.3
20260831105459 26 179 9.7 9.7 0.00 0.00 0.00 68 1015.3
20260831104959 26 193 6.4 9.7 0.00 0.00 0.00 68 1015.3
20260831104529 26 211 8.0 11.3 0.00 0.00 0.00 67 1015.3
20260831104028 26 203 8.0 11.3 0.00 0.00 0.00 67 1015.2
20260831103458 26 224 8.0 9.7 0.00 0.00 0.00 66 1015.1
20260831102958 26 222 9.7 9.7 0.00 0.00 0.00 66 1015.2
20260831102529 26 217 9.7 11.3 0.00 0.00 0.00 66 1015.2
20260831102028 26 231 9.7 11.3 0.00 0.00 0.00 65 1015.2
20260831101528 26 228 8.0 12.9 0.00 0.00 0.00 65 1015.3
20260831101028 27 223 9.7 12.9 0.00 0.00 0.00 64 1015.3
20260831100528 27 211 11.3 12.9 0.00 0.00 0.00 64 1015.2
20260831100028 27 203 12.9 14.5 0.00 0.00 0.00 63 1015.2
20260831095528 27 204 11.3 14.5 0.00 0.00 0.00 63 1015.2
20260831095028 27 195 14.5 17.7 0.00 0.00 0.00 62 1015.1
20260831094528 27 206 9.7 17.7 0.00 0.00 0.00 62 1015.1
20260831094028 27 216 11.3 16.1 0.00 0.00 0.00 62 1015.0
20260831093528 27 211 14.5 17.7 0.00 0.00 0.00 62 1015.0
20260831092958 27 211 12.9 17.7 0.00 0.00 0.00 62 1015.0
20260831092458 27 213 11.3 17.7 0.00 0.00 0.00 61 1015.0
20260831092028 27 210 14.5 16.1 0.00 0.00 0.00 61 1015.0
20260831091528 27 203 16.1 19.3 0.00 0.00 0.00 61 1014.9
20260831091029 27 195 12.9 19.3 0.00 0.00 0.00 61 1014.8
20260831090528 27 210 12.9 19.3 0.00 0.00 0.00 61 1014.8
20260831090027 27 200 16.1 20.9 0.00 0.00 0.00 61 1014.8
20260831085528 27 209 17.7 20.9 0.00 0.00 0.00 60 1014.8
20260831085027 27 216 17.7 20.9 0.00 0.00 0.00 59 1014.7
20260831084027 27 214 16.1 24.1 0.00 0.00 0.00 58 1014.7
20260831083457 27 212 17.7 19.3 0.00 0.00 0.00 58 1014.7
20260831083027 27 211 14.5 19.3 0.00 0.00 0.00 57 1014.7
20260831082457 27 209 12.9 17.7 0.00 0.00 0.00 57 1014.8
20260831081957 27 196 12.9 14.5 0.00 0.00 0.00 57 1014.9
20260831081457 27 204 11.3 17.7 0.00 0.00 0.00 56 1014.9
20260831080527 26 213 14.5 14.5 0.00 0.00 0.00 57 1014.8
20260831080027 26 231 9.7 9.7 0.00 0.00 0.00 58 1014.9
20260831075027 27 219 8.0 9.7 0.00 0.00 0.00 56 1014.9
20260831074027 27 202 8.0 9.7 0.00 0.00 0.00 55 1014.8
20260831073527 27 203 8.0 9.7 0.00 0.00 0.00 55 1014.8
20260831072527 27 202 11.3 11.3 0.00 0.00 0.00 55 1014.7
20260831072027 27 196 9.7 11.3 0.00 0.00 0.00 56 1014.6
20260831071527 27 169 8.0 11.3 0.00 0.00 0.00 56 1014.6
20260831071027 27 174 9.7 11.3 0.00 0.00 0.00 56 1014.7
20260831070527 27 164 9.7 12.9 0.00 0.00 0.00 56 1014.7
20260831065526 27 157 9.7 11.3 0.00 0.00 0.00 55 1014.8
20260831065026 27 167 9.7 11.3 0.00 0.00 0.00 55 1014.8
20260831064457 27 147 11.3 11.3 0.00 0.00 0.00 55 1014.8
20260831064026 28 151 9.7 12.9 0.00 0.00 0.00 54 1014.8
20260831063526 28 149 11.3 14.5 0.00 0.00 0.00 54 1014.8
20260831063026 28 162 9.7 14.5 0.00 0.00 0.00 53 1014.8
20260831062526 28 160 11.3 14.5 0.00 0.00 0.00 53 1014.8
20260831062026 28 158 12.9 14.5 0.00 0.00 0.00 53 1014.8
20260831061526 28 148 11.3 14.5 0.00 0.00 0.00 53 1014.8
20260831061026 28 152 12.9 12.9 0.00 0.00 0.00 52 1014.8
20260831060526 28 150 11.3 12.9 0.00 0.00 0.00 52 1014.9
20260831060026 28 144 9.7 12.9 0.00 0.00 0.00 51 1014.8
20260831055526 28 147 12.9 14.5 0.00 0.00 0.00 51 1014.8
20260831055026 28 154 11.3 14.5 0.00 0.00 0.00 51 1014.7
20260831054456 29 148 11.3 14.5 0.00 0.00 0.00 50 1014.7
20260831054026 29 158 11.3 12.9 0.00 0.00 0.00 50 1014.7
20260831053026 28 206 8.0 14.5 0.00 0.00 0.00 51 1014.8
20260831052455 28 221 9.7 19.3 0.00 0.00 0.00 51 1014.8
20260831052025 29 167 9.7 19.3 0.00 0.00 0.00 49 1014.6
20260831051525 29 135 16.1 17.7 0.00 0.00 0.00 49 1014.6
20260831051025 29 124 14.5 17.7 0.00 0.00 0.00 48 1014.5
20260831050525 29 127 14.5 16.1 0.00 0.00 0.00 48 1014.5
20260831045025 30 136 11.3 12.9 0.00 0.00 0.00 47 1014.4
20260831044525 30 137 11.3 12.9 0.00 0.00 0.00 46 1014.5
20260831044025 30 144 11.3 11.3 0.00 0.00 0.00 45 1014.5
20260831043525 30 136 9.7 11.3 0.00 0.00 0.00 45 1014.6
20260831043025 30 138 9.7 11.3 0.00 0.00 0.00 45 1014.6
20260831042525 30 139 9.7 11.3 0.00 0.00 0.00 44 1014.6
20260831042025 30 139 8.0 12.9 0.00 0.00 0.00 44 1014.6
20260831041525 31 155 11.3 12.9 0.00 0.00 0.00 44 1014.6
20260831041025 31 153 9.7 11.3 0.00 0.00 0.00 43 1014.7
20260831040524 31 164 9.7 11.3 0.00 0.00 0.00 43 1014.6
20260831035025 31 154 9.7 11.3 0.00 0.00 0.00 43 1014.5
20260831034524 30 139 9.7 11.3 0.00 0.00 0.00 43 1014.4
20260831033524 31 138 11.3 11.3 0.00 0.00 0.00 42 1014.4
20260831032524 31 137 11.3 11.3 0.00 0.00 0.00 41 1014.5
20260831032024 31 143 11.3 12.9 0.00 0.00 0.00 41 1014.5
20260831031524 31 143 9.7 14.5 0.00 0.00 0.00 41 1014.4
20260831031024 31 133 11.3 14.5 0.00 0.00 0.00 40 1014.3
20260831030524 31 126 11.3 12.9 0.00 0.00 0.00 40 1014.2
20260831030024 31 123 11.3 12.9 0.00 0.00 0.00 40 1014.2
20260831025524 31 124 11.3 11.3 0.00 0.00 0.00 40 1014.1
20260831025024 31 133 9.7 11.3 0.00 0.00 0.00 39 1014.1
20260831024524 31 129 11.3 11.3 0.00 0.00 0.00 39 1014.1
20260831024024 31 121 9.7 11.3 0.00 0.00 0.00 38 1014.1
20260831023026 31 129 6.4 11.3 0.00 0.00 0.00 37 1013.9
20260831022524 32 141 8.0 11.3 0.00 0.00 0.00 37 1013.9
20260831022024 32 156 11.3 11.3 0.00 0.00 0.00 37 1013.6
20260831021024 32 156 11.3 11.3 0.00 0.00 0.00 36 1013.5
20260831020024 32 144 9.7 11.3 0.00 0.00 0.00 36 1013.4
20260831015524 32 131 9.7 11.3 0.00 0.00 0.00 36 1013.3
20260831014523 32 132 8.0 11.3 0.00 0.00 0.00 35 1013.2
20260831014024 32 132 9.7 11.3 0.00 0.00 0.00 35 1013.2
20260831013524 32 129 11.3 11.3 0.00 0.00 0.00 34 1013.2
20260831013024 32 142 9.7 11.3 0.00 0.00 0.00 33 1013.1
20260831012523 33 144 11.3 11.3 0.00 0.00 0.00 33 1013.1
20260831011524 33 135 8.0 12.9 0.00 0.00 0.00 33 1013.1
20260831011023 33 139 11.3 12.9 0.00 0.00 0.00 32 1013.0
20260831010523 33 144 9.7 11.3 0.00 0.00 0.00 32 1013.0
20260831010023 33 140 8.0 14.5 0.00 0.00 0.00 32 1013.0
20260831005523 34 144 9.7 14.5 0.00 0.00 0.00 32 1013.0
20260831005023 34 168 8.0 14.5 0.00 0.00 0.00 31 1013.0
20260831004523 35 164 11.3 16.1 0.00 0.00 0.00 31 1013.0
20260831004022 35 165 9.7 16.1 0.00 0.00 0.00 30 1013.0
20260831003523 35 168 11.3 19.3 0.00 0.00 0.00 30 1013.0
20260831003022 35 149 12.9 24.1 0.00 0.00 0.00 29 1012.9
20260831002523 35 151 12.9 24.1 0.00 0.00 0.00 29 1012.9
20260831002022 35 163 17.7 22.5 0.00 0.00 0.00 29 1012.9
20260831001522 35 169 19.3 22.5 0.00 0.00 0.00 29 1012.9
20260831001022 36 162 11.3 29.0 0.00 0.00 0.00 29 1013.0
20260831000522 36 190 14.5 29.0 0.00 0.00 0.00 29 1012.9
20260831000022 36 168 14.5 22.5 0.00 0.00 0.00 29 1012.9
20260830235522 36 156 17.7 22.5 0.00 0.00 0.00 29 1012.9
20260830235022 36 130 17.7 22.5 0.00 0.00 0.00 28 1012.9
20260830234521 36 181 11.3 20.9 0.00 0.00 0.00 28 1013.0
20260830234021 36 172 17.7 24.1 0.00 0.00 0.00 28 1012.9
20260830233522 36 134 16.1 27.4 0.00 0.00 0.00 28 1012.9
20260830233021 36 158 16.1 27.4 0.00 0.00 0.00 28 1012.9
20260830232521 36 202 12.9 25.7 0.00 0.00 0.00 28 1012.9
20260830232021 36 145 16.1 24.1 0.00 0.00 0.00 28 1012.8
20260830231021 37 171 24.1 24.1 0.00 0.00 0.00 26 1012.9
20260830230521 37 201 6.4 20.9 0.00 0.00 0.00 27 1013.0
20260830225521 37 190 14.5 25.7 0.00 0.00 0.00 26 1013.1
20260830225021 37 175 19.3 27.4 0.00 0.00 0.00 26 1013.1
20260830224521 37 199 14.5 27.4 0.00 0.00 0.00 26 1013.1
20260830224022 37 140 20.9 22.5 0.00 0.00 0.00 26 1013.0
20260830223523 37 194 12.9 22.5 0.00 0.00 0.00 27 1013.1
20260830222523 36 198 17.7 19.3 0.00 0.00 0.00 28 1013.0
20260830221520 37 149 17.7 27.4 0.00 0.00 0.00 28 1013.1
20260830221021 36 171 17.7 22.5 0.00 0.00 0.00 28 1013.1
20260830220520 37 145 14.5 25.7 0.00 0.00 0.00 27 1013.1
20260830220020 36 117 20.9 25.7 0.00 0.00 0.00 27 1013.1
20260830215520 37 187 9.7 27.4 0.00 0.00 0.00 27 1013.2
20260830215021 36 182 20.9 27.4 0.00 0.00 0.00 28 1013.2
20260830214520 36 183 8.0 24.1 0.00 0.00 0.00 29 1013.2
20260830213020 37 160 27.4 33.8 0.00 0.00 0.00 27 1013.1
20260830212520 37 151 20.9 33.8 0.00 0.00 0.00 28 1013.2
20260830212020 37 184 12.9 25.7 0.00 0.00 0.00 28 1013.3
20260830211519 37 204 19.3 30.6 0.00 0.00 0.00 28 1013.4
20260830210519 36 162 17.7 20.9 0.00 0.00 0.00 28 1013.5
20260830205520 37 158 8.0 24.1 0.00 0.00 0.00 28 1013.6
20260830205019 37 173 20.9 25.7 0.00 0.00 0.00 28 1013.6
20260830204519 36 111 16.1 25.7 0.00 0.00 0.00 29 1013.6
20260830204019 37 180 20.9 22.5 0.00 0.00 0.00 29 1013.7
20260830203520 36 189 8.0 29.0 0.00 0.00 0.00 29 1013.9
20260830203019 37 179 16.1 29.0 0.00 0.00 0.00 29 1013.9
20260830202019 37 225 14.5 22.5 0.00 0.00 0.00 29 1014.1
20260830201019 36 189 22.5 32.2 0.00 0.00 0.00 29 1014.2
20260830200519 37 189 12.9 25.7 0.00 0.00 0.00 30 1014.3
20260830200019 36 139 19.3 27.4 0.00 0.00 0.00 29 1014.3
20260830195520 36 144 20.9 27.4 0.00 0.00 0.00 30 1014.3
20260830194518 36 132 12.9 32.2 0.00 0.00 0.00 30 1014.6
20260830194018 37 146 24.1 32.2 0.00 0.00 0.00 30 1014.6
20260830193519 36 225 27.4 32.2 0.00 0.00 0.00 31 1014.6
20260830193019 36 202 12.9 29.0 0.00 0.00 0.00 31 1014.7
20260830192519 36 197 24.1 30.6 0.00 0.00 0.00 32 1014.7
20260830192018 36 199 20.9 30.6 0.00 0.00 0.00 32 1014.8
20260830191019 36 166 20.9 38.6 0.00 0.00 0.00 31 1014.8
20260830190018 36 208 24.1 32.2 0.00 0.00 0.00 34 1014.9
20260830185018 36 196 20.9 35.4 0.00 0.00 0.00 33 1015.0
20260830184518 35 132 14.5 35.4 0.00 0.00 0.00 34 1015.1
20260830184018 35 177 12.9 33.8 0.00 0.00 0.00 34 1015.0
20260830183018 35 196 20.9 35.4 0.00 0.00 0.00 33 1015.3
20260830182518 36 201 29.0 33.8 0.00 0.00 0.00 33 1015.4
20260830182048 36 195 20.9 35.4 0.00 0.00 0.00 33 1015.4
20260830181018 36 163 24.1 35.4 0.00 0.00 0.00 34 1015.6
20260830180517 36 186 20.9 35.4 0.00 0.00 0.00 36 1015.6
20260830175518 35 222 22.5 35.4 0.00 0.00 0.00 36 1015.8
20260830175018 35 200 30.6 35.4 0.00 0.00 0.00 36 1015.8
20260830174517 35 182 25.7 32.2 0.00 0.00 0.00 36 1015.9
20260830174017 35 211 30.6 32.2 0.00 0.00 0.00 36 1015.9
20260830173018 35 169 17.7 33.8 0.00 0.00 0.00 37 1016.1
20260830172518 35 176 29.0 38.6 0.00 0.00 0.00 37 1016.1
20260830172017 35 203 19.3 38.6 0.00 0.00 0.00 38 1016.3
20260830171517 35 183 25.7 29.0 0.00 0.00 0.00 38 1016.3
20260830171018 35 182 16.1 29.0 0.00 0.00 0.00 39 1016.4
20260830170517 35 220 20.9 29.0 0.00 0.00 0.00 38 1016.5
20260830170017 35 189 24.1 29.0 0.00 0.00 0.00 38 1016.5
20260830165517 35 217 29.0 29.0 0.00 0.00 0.00 39 1016.6
20260830165017 35 218 22.5 29.0 0.00 0.00 0.00 39 1016.6
20260830164547 35 181 29.0 30.6 0.00 0.00 0.00 39 1016.5
20260830164017 34 233 20.9 30.6 0.00 0.00 0.00 41 1016.7
20260830163517 34 204 30.6 30.6 0.00 0.00 0.00 40 1016.7
20260830163017 35 198 19.3 29.0 0.00 0.00 0.00 40 1016.7
20260830162517 33 199 14.5 29.0 0.00 0.00 0.00 43 1016.8
20260830162018 34 225 11.3 27.4 0.00 0.00 0.00 42 1016.8
20260830161517 34 200 17.7 20.9 0.00 0.00 0.00 43 1016.8
20260830161017 33 218 17.7 29.0 0.00 0.00 0.00 44 1016.8
20260830160516 33 216 24.1 29.0 0.00 0.00 0.00 45 1016.8
20260830160016 33 227 27.4 30.6 0.00 0.00 0.00 45 1016.9
20260830155017 33 209 24.1 24.1 0.00 0.00 0.00 47 1016.9
20260830154517 33 180 11.3 24.1 0.00 0.00 0.00 48 1016.9
20260830154016 33 207 19.3 24.1 0.00 0.00 0.00 49 1016.9
20260830152016 32 225 22.5 27.4 0.00 0.00 0.00 51 1016.9
20260830151516 32 203 22.5 25.7 0.00 0.00 0.00 51 1016.9
20260830151016 32 203 22.5 22.5 0.00 0.00 0.00 51 1016.9